• In Hungary
  • List of Countries
  • For 7 days
  • Water Temperature
  • Satellite Maps
  • Weather Map
  • News
  • Weather Widgets
  • user-avatar
    Login

    Hourly Weather Nashua

    Today, 20 June, Wednesday

    Time Temperature Precipitation Wind Pressure Humidity
    00:00 +16°C° 0 mm 1 mps 756 mmHg 65%
    01:00 +15°C° 0 mm 1 mps 756 mmHg 67%
    02:00 +14°C° 0 mm 1 mps 756 mmHg 68%
    03:00 +14°C° 0 mm 1 mps 756 mmHg 68%
    04:00 +14°C° 0 mm 1 mps 756 mmHg 69%
    05:00 +16°C° 0 mm 1 mps 756 mmHg 63%
    06:00 +19°C° 0 mm 1 mps 756 mmHg 57%
    07:00 +20°C° 0 mm 0 mps 755 mmHg 51%
    08:00 +23°C° 0 mm 1 mps 755 mmHg 46%
    09:00 +25°C° 0 mm 1 mps 755 mmHg 41%
    10:00 +27°C° 0 mm 2 mps 755 mmHg 36%
    11:00 +28°C° 0 mm 2 mps 754 mmHg 33%
    12:00 +29°C° 0 mm 3 mps 754 mmHg 30%
    13:00 +30°C° 0 mm 3 mps 753 mmHg 27%
    14:00 +29°C° 0 mm 3 mps 753 mmHg 31%
    15:00 +28°C° 0 mm 3 mps 752 mmHg 35%
    16:00 +28°C° 0 mm 3 mps 752 mmHg 39%
    17:00 +26°C° 0 mm 3 mps 752 mmHg 46%
    18:00 +25°C° 0 mm 3 mps 752 mmHg 53%
    19:00 +22°C° 0 mm 3 mps 752 mmHg 60%
    20:00 +20°C° 0 mm 2 mps 752 mmHg 64%
    21:00 +19°C° 0 mm 2 mps 752 mmHg 68%
    22:00 +18°C° 0 mm 2 mps 752 mmHg 72%
    23:00 +17°C° 0 mm 2 mps 752 mmHg 71%

    Tomorrow, 21 June, Thursday

    Time Temperature Precipitation Wind Pressure Humidity
    00:00 +17°C° 0 mm 2 mps 752 mmHg 70%
    01:00 +17°C° 0 mm 2 mps 752 mmHg 68%
    02:00 +16°C° 0 mm 1 mps 752 mmHg 71%
    03:00 +16°C° 0 mm 1 mps 752 mmHg 73%
    04:00 +16°C° 0 mm 1 mps 752 mmHg 76%
    05:00 +18°C° 0 mm 1 mps 752 mmHg 71%
    06:00 +19°C° 0 mm 2 mps 752 mmHg 66%
    07:00 +21°C° 0 mm 2 mps 753 mmHg 62%
    08:00 +23°C° 0 mm 2 mps 753 mmHg 57%
    09:00 +25°C° 0 mm 2 mps 753 mmHg 51%
    10:00 +26°C° 0 mm 2 mps 753 mmHg 46%
    11:00 +26°C° 0 mm 3 mps 753 mmHg 44%
    12:00 +27°C° 0 mm 3 mps 753 mmHg 42%
    13:00 +27°C° 0 mm 3 mps 753 mmHg 40%
    14:00 +27°C° 0 mm 3 mps 753 mmHg 40%
    15:00 +26°C° 0 mm 3 mps 753 mmHg 41%
    16:00 +26°C° 0 mm 3 mps 754 mmHg 41%
    17:00 +24°C° 0 mm 2 mps 754 mmHg 49%
    18:00 +21°C° 0 mm 2 mps 755 mmHg 58%
    19:00 +19°C° 0 mm 2 mps 755 mmHg 67%
    20:00 +19°C° 0 mm 1 mps 756 mmHg 72%
    21:00 +16°C° 0 mm 1 mps 757 mmHg 77%
    22:00 +14°C° 0 mm 0 mps 757 mmHg 82%
    23:00 +13°C° 0 mm 0 mps 757 mmHg 83%

    Day after tomorrow, 22 June, Friday

    Time Temperature Precipitation Wind Pressure Humidity
    00:00 +14°C° 0 mm 1 mps 758 mmHg 84%
    01:00 +13°C° 0 mm 1 mps 758 mmHg 85%
    02:00 +13°C° 0 mm 1 mps 758 mmHg 86%
    03:00 +13°C° 0 mm 1 mps 758 mmHg 86%
    04:00 +12°C° 0 mm 1 mps 758 mmHg 87%
    05:00 +14°C° 0 mm 1 mps 759 mmHg 79%
    06:00 +16°C° 0 mm 0 mps 759 mmHg 72%
    07:00 +18°C° 0 mm 0 mps 759 mmHg 64%
    08:00 +22°C° 0 mm 1 mps 759 mmHg 56%
    09:00 +24°C° 0 mm 1 mps 759 mmHg 49%
    10:00 +26°C° 0 mm 2 mps 760 mmHg 41%
    11:00 +27°C° 0 mm 2 mps 759 mmHg 37%
    12:00 +28°C° 0 mm 2 mps 759 mmHg 34%
    13:00 +29°C° 0 mm 3 mps 759 mmHg 30%
    14:00 +29°C° 0 mm 3 mps 759 mmHg 32%
    15:00 +28°C° 0 mm 3 mps 758 mmHg 34%
    16:00 +28°C° 0 mm 3 mps 758 mmHg 35%
    17:00 +26°C° 0 mm 3 mps 758 mmHg 41%
    18:00 +24°C° 0 mm 3 mps 758 mmHg 46%
    19:00 +21°C° 0 mm 3 mps 759 mmHg 51%
    20:00 +20°C° 0 mm 3 mps 759 mmHg 51%
    21:00 +19°C° 0 mm 2 mps 759 mmHg 50%
    22:00 +17°C° 0 mm 2 mps 759 mmHg 50%
    23:00 +16°C° 0 mm 2 mps 759 mmHg 54%

    23 June, Saturday

    Time Temperature Precipitation Wind Pressure Humidity
    00:00 +15°C° 0 mm 1 mps 759 mmHg 58%
    01:00 +14°C° 0 mm 1 mps 759 mmHg 63%
    02:00 +13°C° 0 mm 1 mps 759 mmHg 66%
    03:00 +12°C° 0 mm 0 mps 758 mmHg 69%
    04:00 +11°C° 0 mm 0 mps 758 mmHg 73%
    05:00 +14°C° 0 mm 0 mps 758 mmHg 69%
    06:00 +18°C° 0 mm 1 mps 758 mmHg 65%
    07:00 +20°C° 0 mm 1 mps 758 mmHg 61%
    08:00 +22°C° 0 mm 1 mps 757 mmHg 59%
    09:00 +24°C° 0 mm 2 mps 757 mmHg 57%
    10:00 +25°C° 0 mm 3 mps 757 mmHg 55%
    11:00 +25°C° 0.1 mm 3 mps 756 mmHg 64%
    12:00 +24°C° 0.1 mm 3 mps 755 mmHg 72%
    13:00 +22°C° 0.1 mm 3 mps 755 mmHg 80%
    14:00 +21°C° 0.4 mm 3 mps 754 mmHg 85%
    15:00 +21°C° 0.4 mm 3 mps 753 mmHg 90%
    16:00 +20°C° 0.4 mm 3 mps 753 mmHg 95%
    17:00 +20°C° 0.2 mm 2 mps 752 mmHg 96%
    18:00 +20°C° 0.2 mm 2 mps 752 mmHg 97%
    19:00 +20°C° 0.2 mm 2 mps 751 mmHg 98%
    20:00 +20°C° 0.1 mm 2 mps 751 mmHg 98%
    21:00 +21°C° 0.1 mm 1 mps 750 mmHg 98%
    22:00 +22°C° 0.1 mm 1 mps 750 mmHg 99%
    23:00 +22°C° 0.1 mm 1 mps 749 mmHg 98%

    24 June, Sunday

    Time Temperature Precipitation Wind Pressure Humidity
    00:00 +21°C° 0.1 mm 2 mps 749 mmHg 98%
    01:00 +21°C° 0.1 mm 2 mps 748 mmHg 98%
    02:00 +23°C° 0 mm 2 mps 748 mmHg 98%
    03:00 +23°C° 0 mm 2 mps 748 mmHg 98%
    04:00 +22°C° 0 mm 3 mps 748 mmHg 97%
    05:00 +22°C° 0 mm 3 mps 748 mmHg 94%
    06:00 +24°C° 0 mm 3 mps 749 mmHg 91%
    07:00 +25°C° 0 mm 3 mps 749 mmHg 88%
    08:00 +27°C° 0 mm 4 mps 749 mmHg 77%
    09:00 +28°C° 0 mm 4 mps 749 mmHg 67%
    10:00 +30°C° 0 mm 4 mps 749 mmHg 57%
    11:00 +30°C° 0.5 mm 4 mps 749 mmHg 61%
    12:00 +30°C° 0.5 mm 4 mps 748 mmHg 64%
    13:00 +30°C° 0.5 mm 4 mps 748 mmHg 68%
    14:00 +30°C° 0.6 mm 4 mps 748 mmHg 71%
    15:00 +29°C° 0.6 mm 4 mps 748 mmHg 74%
    16:00 +28°C° 0.6 mm 4 mps 748 mmHg 77%
    17:00 +27°C° 0.7 mm 4 mps 749 mmHg 81%
    18:00 +25°C° 0.7 mm 3 mps 750 mmHg 85%
    19:00 +24°C° 0.7 mm 3 mps 750 mmHg 89%
    20:00 +22°C° 0 mm 3 mps 751 mmHg 89%
    21:00 +20°C° 0 mm 3 mps 751 mmHg 90%
    22:00 +19°C° 0 mm 3 mps 752 mmHg 91%
    23:00 +18°C° 0 mm 3 mps 752 mmHg 92%

    25 June, Monday

    Time Temperature Precipitation Wind Pressure Humidity
    00:00 +17°C° 0 mm 2 mps 753 mmHg 92%
    01:00 +16°C° 0 mm 2 mps 753 mmHg 92%
    02:00 +16°C° 0 mm 2 mps 753 mmHg 92%
    03:00 +16°C° 0 mm 2 mps 754 mmHg 92%
    04:00 +16°C° 0 mm 2 mps 754 mmHg 92%
    05:00 +17°C° 0 mm 2 mps 755 mmHg 88%
    06:00 +18°C° 0 mm 2 mps 755 mmHg 84%
    07:00 +20°C° 0 mm 2 mps 755 mmHg 81%
    08:00 +21°C° 0 mm 2 mps 755 mmHg 78%
    09:00 +23°C° 0 mm 2 mps 756 mmHg 75%
    10:00 +23°C° 0 mm 2 mps 756 mmHg 72%
    11:00 +24°C° 0.3 mm 2 mps 756 mmHg 72%
    12:00 +24°C° 0.3 mm 2 mps 756 mmHg 72%
    13:00 +24°C° 0.3 mm 3 mps 756 mmHg 71%
    14:00 +22°C° 0.7 mm 3 mps 756 mmHg 75%
    15:00 +21°C° 0.7 mm 3 mps 756 mmHg 78%
    16:00 +20°C° 0.7 mm 3 mps 756 mmHg 81%
    17:00 +19°C° 0.9 mm 3 mps 757 mmHg 85%
    18:00 +18°C° 0.9 mm 2 mps 757 mmHg 89%
    19:00 +17°C° 0.9 mm 2 mps 757 mmHg 93%
    20:00 +16°C° 0.3 mm 2 mps 758 mmHg 94%
    21:00 +16°C° 0.3 mm 2 mps 758 mmHg 94%
    22:00 +16°C° 0.3 mm 2 mps 758 mmHg 95%
    23:00 +16°C° 0.2 mm 2 mps 758 mmHg 95%
    Show more